Location: Catacaguana
(10.4120°N, 66.7591°W)
Time: 21:08:42
(UTC+00:00)

FengYun 1-2 T - Pass Details

Date: 04 February 2023
Orbit: 846 x 880 km, 98.7° (Epoch: 28 March)

Event Time Altitude Azimuth Distance (km) Brightness Sun altitude
Rises 08:50:52 0° 36° (NE) 3,461 7.7 -29.1°
Reaches altitude 10° 08:53:47 10° 50° (NE) 2,526 7.1 -28.4°
Maximum altitude 08:58:05 23° 101° (E) 1,794 6.6 -27.4°
Drops below altitude 10° 09:02:23 10° 151° (SSE) 2,531 7.2 -26.4°
Sets 09:05:16 0° 165° (SSE) 3,468 7.8 -25.7°
